Time,TemperatureF,DewpointF,PressureIn,WindDirection,WindDirectionDegrees,WindSpeedMPH,WindSpeedGustMPH,Humidity,HourlyPrecipIn,Conditions,Clouds,dailyrainin,SoftwareType,DateUTC
2013-03-18 00:02:00,32.0,27.0,29.95,NE,38,1.0,4.0,83,0.00,,,0.00,,2013-03-18 05:02:00,
2013-03-18 00:12:00,32.0,27.0,29.95,NE,38,1.0,4.0,83,0.00,,,0.00,,2013-03-18 05:12:00,
2013-03-18 00:22:00,32.0,28.0,29.95,North,360,0.0,4.0,84,0.00,,,0.00,,2013-03-18 05:22:00,
2013-03-18 00:32:00,32.0,28.0,29.95,NNE,24,0.0,3.0,84,0.00,,,0.00,,2013-03-18 05:32:00,
2013-03-18 00:43:00,32.0,28.0,29.95,NNE,24,0.0,3.0,84,0.00,,,0.00,,2013-03-18 05:43:00,
2013-03-18 00:52:00,32.0,28.0,29.94,NW,315,0.0,5.0,84,0.00,,,0.00,,2013-03-18 05:52:00,
2013-03-18 01:02:00,32.0,28.0,29.93,NNE,31,1.0,4.0,84,0.00,,,0.00,,2013-03-18 06:02:00,
2013-03-18 01:12:00,32.0,28.0,29.93,NNE,31,1.0,4.0,84,0.00,,,0.00,,2013-03-18 06:12:00,
2013-03-18 01:22:00,32.0,28.0,29.92,North,5,1.0,4.0,84,0.00,,,0.00,,2013-03-18 06:22:00,
2013-03-18 01:32:00,32.0,28.0,29.90,North,5,1.0,6.0,84,0.00,,,0.00,,2013-03-18 06:32:00,
2013-03-18 01:42:00,32.0,28.0,29.90,North,5,1.0,6.0,84,0.00,,,0.00,,2013-03-18 06:42:00,
2013-03-18 01:52:00,31.0,27.0,29.90,North,11,1.0,5.0,85,0.00,,,0.00,,2013-03-18 06:52:00,
2013-03-18 02:02:00,31.0,27.0,29.89,NNW,340,2.0,4.0,85,0.00,,,0.00,,2013-03-18 07:02:00,
2013-03-18 02:12:00,31.0,27.0,29.89,NNW,340,2.0,4.0,85,0.00,,,0.00,,2013-03-18 07:12:00,
2013-03-18 02:22:00,32.0,28.0,29.89,NNE,31,1.0,4.0,85,0.00,,,0.00,,2013-03-18 07:22:00,
2013-03-18 02:32:00,32.0,28.0,29.89,East,88,0.0,4.0,85,0.00,,,0.00,,2013-03-18 07:32:00,
2013-03-18 02:42:00,32.0,28.0,29.89,East,88,0.0,4.0,85,0.00,,,0.00,,2013-03-18 07:42:00,
2013-03-18 02:52:00,32.0,28.0,29.87,NNE,33,1.0,6.0,85,0.00,,,0.00,,2013-03-18 07:52:00,
2013-03-18 03:02:00,31.0,27.0,29.85,NNE,22,1.0,5.0,85,0.00,,,0.00,,2013-03-18 08:02:00,
2013-03-18 03:12:00,31.0,27.0,29.85,NNE,22,1.0,5.0,85,0.00,,,0.00,,2013-03-18 08:12:00,
2013-03-18 03:22:00,31.0,27.0,29.85,ENE,78,1.0,4.0,85,0.00,,,0.00,,2013-03-18 08:22:00,
2013-03-18 03:32:00,31.0,28.0,29.84,North,5,0.0,4.0,87,0.00,,,0.00,,2013-03-18 08:32:00,
2013-03-18 03:43:00,31.0,28.0,29.84,North,5,0.0,4.0,87,0.00,,,0.00,,2013-03-18 08:43:00,
2013-03-18 03:52:00,31.0,28.0,29.83,ENE,67,0.0,3.0,87,0.00,,,0.00,,2013-03-18 08:52:00,
2013-03-18 04:02:00,31.0,28.0,29.81,NNE,20,0.0,3.0,87,0.00,,,0.00,,2013-03-18 09:02:00,
2013-03-18 04:12:00,31.0,28.0,29.81,NNE,20,0.0,3.0,87,0.00,,,0.00,,2013-03-18 09:12:00,
2013-03-18 04:22:00,31.0,28.0,29.80,NE,40,0.0,5.0,88,0.00,,,0.00,,2013-03-18 09:22:00,
2013-03-18 04:33:00,31.0,28.0,29.80,NNE,20,0.0,3.0,89,0.00,,,0.00,,2013-03-18 09:33:00,
2013-03-18 04:43:00,31.0,28.0,29.80,NNE,20,0.0,3.0,89,0.00,,,0.00,,2013-03-18 09:43:00,
2013-03-18 04:53:00,31.0,28.0,29.80,NE,47,0.0,2.0,90,0.00,,,0.00,,2013-03-18 09:53:00,
2013-03-18 05:03:00,31.0,28.0,29.79,NNW,331,1.0,3.0,89,0.00,,,0.00,,2013-03-18 10:03:00,
2013-03-18 05:12:00,31.0,28.0,29.79,NNW,331,1.0,3.0,89,0.00,,,0.00,,2013-03-18 10:12:00,
2013-03-18 05:23:00,31.0,29.0,29.78,NNE,30,0.0,3.0,91,0.00,,,0.00,,2013-03-18 10:23:00,
2013-03-18 05:33:00,31.0,29.0,29.77,SSE,163,0.0,3.0,91,0.00,,,0.00,,2013-03-18 10:33:00,
2013-03-18 05:42:00,31.0,29.0,29.77,SSE,163,0.0,3.0,91,0.00,,,0.00,,2013-03-18 10:42:00,
2013-03-18 05:52:00,31.0,29.0,29.77,ESE,108,0.0,4.0,92,0.01,,,0.01,,2013-03-18 10:52:00,
2013-03-18 06:03:00,31.0,29.0,29.76,West,262,1.0,3.0,93,0.01,,,0.01,,2013-03-18 11:03:00,
2013-03-18 06:13:00,31.0,29.0,29.76,West,262,1.0,3.0,93,0.01,,,0.01,,2013-03-18 11:13:00,
2013-03-18 06:22:00,31.0,29.0,29.75,WSW,242,0.0,3.0,93,0.01,,,0.01,,2013-03-18 11:22:00,
2013-03-18 06:32:00,31.0,29.0,29.75,East,94,0.0,2.0,93,0.01,,,0.01,,2013-03-18 11:32:00,
2013-03-18 06:42:00,31.0,29.0,29.75,East,94,0.0,2.0,93,0.01,,,0.01,,2013-03-18 11:42:00,
2013-03-18 06:52:00,31.0,29.0,29.75,East,94,0.0,2.0,93,0.00,,,0.01,,2013-03-18 11:52:00,
2013-03-18 07:02:00,31.0,29.0,29.75,NNE,15,0.0,2.0,94,0.00,,,0.01,,2013-03-18 12:02:00,
2013-03-18 07:12:00,31.0,29.0,29.75,NNE,15,0.0,2.0,94,0.00,,,0.01,,2013-03-18 12:12:00,
2013-03-18 07:22:00,31.0,29.0,29.75,East,97,0.0,2.0,94,0.00,,,0.01,,2013-03-18 12:22:00,
2013-03-18 07:32:00,31.0,29.0,29.75,East,97,0.0,2.0,94,0.00,,,0.01,,2013-03-18 12:32:00,
2013-03-18 07:42:00,31.0,29.0,29.75,East,97,0.0,2.0,94,0.00,,,0.01,,2013-03-18 12:42:00,
2013-03-18 07:52:00,31.0,29.0,29.72,ESE,105,0.0,2.0,94,0.00,,,0.01,,2013-03-18 12:52:00,
2013-03-18 08:02:00,31.0,29.0,29.72,ESE,102,0.0,4.0,94,0.00,,,0.01,,2013-03-18 13:02:00,
2013-03-18 08:12:00,31.0,29.0,29.72,ESE,102,0.0,4.0,94,0.00,,,0.01,,2013-03-18 13:12:00,
2013-03-18 08:22:00,31.0,29.0,29.72,East,80,0.0,2.0,94,0.00,,,0.01,,2013-03-18 13:22:00,
2013-03-18 08:33:00,31.0,30.0,29.71,ESE,114,0.0,2.0,95,0.00,,,0.01,,2013-03-18 13:33:00,
2013-03-18 08:42:00,31.0,30.0,29.71,ESE,114,0.0,2.0,95,0.00,,,0.01,,2013-03-18 13:42:00,
2013-03-18 08:52:00,31.0,30.0,29.71,SE,134,0.0,2.0,95,0.00,,,0.01,,2013-03-18 13:52:00,
2013-03-18 09:02:00,31.0,30.0,29.71,SE,134,0.0,2.0,95,0.00,,,0.01,,2013-03-18 14:02:00,
2013-03-18 09:12:00,31.0,30.0,29.71,SE,134,0.0,2.0,95,0.00,,,0.01,,2013-03-18 14:12:00,
2013-03-18 09:22:00,31.0,30.0,29.71,ENE,69,0.0,1.0,95,0.00,,,0.01,,2013-03-18 14:22:00,
2013-03-18 09:32:00,31.0,30.0,29.70,ENE,63,0.0,2.0,95,0.01,,,0.02,,2013-03-18 14:32:00,
2013-03-18 09:42:00,31.0,30.0,29.70,ENE,63,0.0,2.0,95,0.01,,,0.02,,2013-03-18 14:42:00,
2013-03-18 09:52:00,31.0,30.0,29.70,ENE,70,0.0,1.0,95,0.02,,,0.03,,2013-03-18 14:52:00,
2013-03-18 10:02:00,31.0,30.0,29.69,ENE,71,0.0,1.0,95,0.03,,,0.04,,2013-03-18 15:02:00,
2013-03-18 10:12:00,31.0,30.0,29.69,ENE,71,0.0,1.0,95,0.03,,,0.04,,2013-03-18 15:12:00,
2013-03-18 10:22:00,32.0,31.0,29.68,ENE,69,0.0,1.0,95,0.03,,,0.04,,2013-03-18 15:22:00,
2013-03-18 10:33:00,32.0,31.0,29.69,ENE,67,0.0,1.0,95,0.03,,,0.05,,2013-03-18 15:33:00,
2013-03-18 10:43:00,32.0,31.0,29.69,ENE,67,0.0,1.0,95,0.03,,,0.05,,2013-03-18 15:43:00,
2013-03-18 10:52:00,32.0,31.0,29.69,ENE,67,0.0,1.0,95,0.03,,,0.05,,2013-03-18 15:52:00,
2013-03-18 11:03:00,32.0,31.0,29.69,ENE,67,0.0,0.0,95,0.01,,,0.05,,2013-03-18 16:03:00,
2013-03-18 11:12:00,32.0,31.0,29.69,ENE,67,0.0,0.0,95,0.01,,,0.05,,2013-03-18 16:12:00,
2013-03-18 11:22:00,32.0,31.0,29.68,ENE,67,0.0,1.0,95,0.01,,,0.05,,2013-03-18 16:22:00,
2013-03-18 11:32:00,32.0,31.0,29.68,ENE,71,0.0,0.0,95,0.00,,,0.05,,2013-03-18 16:32:00,
2013-03-18 11:42:00,32.0,31.0,29.68,ENE,71,0.0,0.0,95,0.00,,,0.05,,2013-03-18 16:42:00,
2013-03-18 11:52:00,32.0,31.0,29.68,ENE,71,0.0,0.0,95,0.00,,,0.05,,2013-03-18 16:52:00,
2013-03-18 12:02:00,32.0,31.0,29.68,East,80,0.0,1.0,95,0.00,,,0.05,,2013-03-18 17:02:00,
2013-03-18 12:12:00,32.0,31.0,29.68,East,80,0.0,1.0,95,0.00,,,0.05,,2013-03-18 17:12:00,
2013-03-18 12:22:00,33.0,32.0,29.67,ESE,111,0.0,1.0,95,0.01,,,0.06,,2013-03-18 17:22:00,
2013-03-18 12:32:00,33.0,32.0,29.67,ESE,111,0.0,1.0,95,0.01,,,0.06,,2013-03-18 17:32:00,
2013-03-18 12:42:00,33.0,32.0,29.67,ESE,111,0.0,1.0,95,0.01,,,0.06,,2013-03-18 17:42:00,
2013-03-18 12:52:00,33.0,32.0,29.67,NW,314,0.0,3.0,95,0.01,,,0.06,,2013-03-18 17:52:00,
2013-03-18 13:02:00,33.0,32.0,29.66,NW,326,0.0,4.0,95,0.01,,,0.06,,2013-03-18 18:02:00,
2013-03-18 13:12:00,33.0,32.0,29.66,NW,326,0.0,4.0,95,0.01,,,0.06,,2013-03-18 18:12:00,
2013-03-18 13:22:00,33.0,32.0,29.66,WNW,286,1.0,4.0,95,0.00,,,0.06,,2013-03-18 18:22:00,
2013-03-18 13:32:00,33.0,32.0,29.65,NNW,338,2.0,5.0,95,0.00,,,0.06,,2013-03-18 18:32:00,
2013-03-18 13:42:00,33.0,32.0,29.65,NNW,338,2.0,5.0,95,0.00,,,0.06,,2013-03-18 18:42:00,
2013-03-18 13:52:00,33.0,32.0,29.66,WNW,301,3.0,8.0,95,0.00,,,0.06,,2013-03-18 18:52:00,
2013-03-18 14:02:00,33.0,32.0,29.66,WNW,290,2.0,6.0,95,0.00,,,0.06,,2013-03-18 19:02:00,
2013-03-18 14:12:00,33.0,32.0,29.66,WNW,290,2.0,6.0,95,0.00,,,0.06,,2013-03-18 19:12:00,
2013-03-18 14:22:00,33.0,32.0,29.67,NW,306,3.0,7.0,95,0.00,,,0.06,,2013-03-18 19:22:00,
2013-03-18 14:33:00,34.0,33.0,29.66,NW,313,1.0,7.0,96,0.00,,,0.06,,2013-03-18 19:33:00,
2013-03-18 14:42:00,34.0,33.0,29.66,NW,313,1.0,7.0,96,0.00,,,0.06,,2013-03-18 19:42:00,
2013-03-18 14:52:00,34.0,33.0,29.66,NW,313,1.0,7.0,96,0.00,,,0.06,,2013-03-18 19:52:00,
2013-03-18 15:02:00,34.0,33.0,29.66,NW,313,1.0,7.0,96,0.00,,,0.06,,2013-03-18 20:02:00,
2013-03-18 15:12:00,34.0,33.0,29.66,NW,313,1.0,7.0,96,0.00,,,0.06,,2013-03-18 20:12:00,
2013-03-18 15:23:00,35.0,33.0,29.65,WNW,292,4.0,10.0,94,0.00,,,0.06,,2013-03-18 20:23:00,
2013-03-18 15:33:00,36.0,35.0,29.65,NW,306,4.0,10.0,95,0.00,,,0.06,,2013-03-18 20:33:00,
2013-03-18 15:42:00,36.0,35.0,29.65,NW,306,4.0,10.0,95,0.00,,,0.06,,2013-03-18 20:42:00,
2013-03-18 15:52:00,36.0,34.0,29.66,West,262,6.0,10.0,94,0.00,,,0.06,,2013-03-18 20:52:00,
2013-03-18 16:02:00,36.0,34.0,29.66,West,265,6.0,14.0,94,0.00,,,0.06,,2013-03-18 21:02:00,
2013-03-18 16:12:00,36.0,34.0,29.66,West,265,6.0,14.0,94,0.00,,,0.06,,2013-03-18 21:12:00,
2013-03-18 16:22:00,36.0,34.0,29.66,WNW,300,5.0,11.0,93,0.00,,,0.06,,2013-03-18 21:22:00,
2013-03-18 16:32:00,36.0,34.0,29.66,NW,312,6.0,15.0,92,0.00,,,0.06,,2013-03-18 21:32:00,
2013-03-18 16:42:00,36.0,34.0,29.66,NW,312,6.0,15.0,92,0.00,,,0.06,,2013-03-18 21:42:00,
2013-03-18 16:52:00,36.0,34.0,29.66,NNW,342,6.0,12.0,91,0.00,,,0.06,,2013-03-18 21:52:00,
2013-03-18 17:03:00,36.0,34.0,29.66,WSW,255,7.0,12.0,91,0.00,,,0.06,,2013-03-18 22:03:00,
2013-03-18 17:13:00,36.0,34.0,29.66,WSW,255,7.0,12.0,91,0.00,,,0.06,,2013-03-18 22:13:00,
2013-03-18 17:23:00,36.0,34.0,29.67,WNW,284,5.0,14.0,91,0.00,,,0.06,,2013-03-18 22:23:00,
2013-03-18 17:33:00,36.0,33.0,29.68,West,266,5.0,17.0,88,0.00,,,0.06,,2013-03-18 22:33:00,
2013-03-18 17:42:00,36.0,33.0,29.68,West,266,5.0,17.0,88,0.00,,,0.06,,2013-03-18 22:42:00,
2013-03-18 17:52:00,36.0,32.0,29.69,NW,316,9.0,16.0,86,0.00,,,0.06,,2013-03-18 22:52:00,
2013-03-18 18:03:00,34.0,31.0,29.70,West,271,8.0,19.0,90,0.00,,,0.06,,2013-03-18 23:03:00,
2013-03-18 18:12:00,34.0,31.0,29.70,West,271,8.0,19.0,90,0.00,,,0.06,,2013-03-18 23:12:00,
2013-03-18 18:22:00,34.0,31.0,29.71,WNW,286,11.0,19.0,88,0.00,,,0.06,,2013-03-18 23:22:00,
2013-03-18 18:32:00,32.0,29.0,29.73,NW,317,9.0,19.0,87,0.00,,,0.06,,2013-03-18 23:32:00,
2013-03-18 18:42:00,32.0,29.0,29.73,NW,317,9.0,19.0,87,0.00,,,0.06,,2013-03-18 23:42:00,
2013-03-18 18:52:00,31.0,27.0,29.73,NW,326,10.0,19.0,86,0.00,,,0.06,,2013-03-18 23:52:00,
2013-03-18 19:02:00,31.0,27.0,29.75,NW,319,10.0,23.0,85,0.00,,,0.06,,2013-03-19 00:02:00,
2013-03-18 19:12:00,31.0,27.0,29.75,NW,319,10.0,23.0,85,0.00,,,0.06,,2013-03-19 00:12:00,
2013-03-18 19:22:00,29.0,25.0,29.77,NW,306,11.0,21.0,83,0.00,,,0.06,,2013-03-19 00:22:00,
2013-03-18 19:32:00,29.0,25.0,29.78,West,279,10.0,18.0,83,0.00,,,0.06,,2013-03-19 00:32:00,
2013-03-18 19:42:00,29.0,25.0,29.78,West,279,10.0,18.0,83,0.00,,,0.06,,2013-03-19 00:42:00,
2013-03-18 19:52:00,29.0,24.0,29.78,NW,319,9.0,18.0,82,0.00,,,0.06,,2013-03-19 00:52:00,
2013-03-18 20:02:00,29.0,24.0,29.80,WNW,289,10.0,18.0,80,0.00,,,0.06,,2013-03-19 01:02:00,
2013-03-18 20:12:00,29.0,24.0,29.80,WNW,289,10.0,18.0,80,0.00,,,0.06,,2013-03-19 01:12:00,
2013-03-18 20:22:00,28.0,23.0,29.81,WNW,284,11.0,20.0,80,0.00,,,0.06,,2013-03-19 01:22:00,
2013-03-18 20:32:00,28.0,22.0,29.81,West,275,8.0,19.0,78,0.00,,,0.06,,2013-03-19 01:32:00,
2013-03-18 20:42:00,28.0,22.0,29.81,West,275,8.0,19.0,78,0.00,,,0.06,,2013-03-19 01:42:00,
2013-03-18 20:52:00,28.0,22.0,29.82,NNW,328,8.0,20.0,77,0.00,,,0.06,,2013-03-19 01:52:00,
2013-03-18 21:02:00,28.0,23.0,29.83,North,355,9.0,15.0,80,0.00,,,0.06,,2013-03-19 02:02:00,
2013-03-18 21:12:00,28.0,23.0,29.83,North,355,9.0,15.0,80,0.00,,,0.06,,2013-03-19 02:12:00,
2013-03-18 21:22:00,27.0,22.0,29.84,NNW,340,10.0,20.0,81,0.00,,,0.06,,2013-03-19 02:22:00,
2013-03-18 21:32:00,26.0,20.0,29.84,WNW,293,11.0,27.0,77,0.00,,,0.06,,2013-03-19 02:32:00,
2013-03-18 21:42:00,26.0,20.0,29.84,WNW,293,11.0,27.0,77,0.00,,,0.06,,2013-03-19 02:42:00,
2013-03-18 21:52:00,25.0,19.0,29.85,NNW,338,11.0,22.0,76,0.00,,,0.06,,2013-03-19 02:52:00,
2013-03-18 22:02:00,25.0,19.0,29.85,NNW,336,13.0,20.0,76,0.00,,,0.06,,2013-03-19 03:02:00,
2013-03-18 22:12:00,25.0,19.0,29.85,NNW,336,13.0,20.0,76,0.00,,,0.06,,2013-03-19 03:12:00,
2013-03-18 22:22:00,25.0,18.0,29.86,WNW,303,10.0,20.0,73,0.00,,,0.06,,2013-03-19 03:22:00,
2013-03-18 22:33:00,25.0,18.0,29.86,WNW,285,11.0,25.0,73,0.00,,,0.06,,2013-03-19 03:33:00,
2013-03-18 22:43:00,25.0,18.0,29.86,WNW,285,11.0,25.0,73,0.00,,,0.06,,2013-03-19 03:43:00,
2013-03-18 22:53:00,24.0,17.0,29.87,NW,323,10.0,25.0,75,0.00,,,0.06,,2013-03-19 03:53:00,
2013-03-18 23:03:00,24.0,17.0,29.87,NNW,337,10.0,20.0,75,0.00,,,0.06,,2013-03-19 04:03:00,
2013-03-18 23:13:00,24.0,17.0,29.87,NNW,337,10.0,20.0,75,0.00,,,0.06,,2013-03-19 04:13:00,
2013-03-18 23:23:00,24.0,18.0,29.88,NW,305,9.0,18.0,76,0.00,,,0.06,,2013-03-19 04:23:00,
2013-03-18 23:33:00,24.0,17.0,29.88,NNW,344,11.0,18.0,75,0.00,,,0.06,,2013-03-19 04:33:00,
2013-03-18 23:43:00,24.0,17.0,29.88,NNW,344,11.0,18.0,75,0.00,,,0.06,,2013-03-19 04:43:00,
2013-03-18 23:52:00,24.0,18.0,29.88,NNW,330,10.0,16.0,76,0.00,,,0.06,,2013-03-19 04:52:00,